Regional Weather Roundup
Issued by NWS

Home | Current Version | Previous Version | Graphics & Text | Print | Product List | Glossary Off
Versions: 1 2 3 4 5 6 7 8 9 10 11 12 13 14 15 16 17 18 19 20 21 22 23 24 25 26 27 28 29 30 31 32 33 34 35 36 37 38 39 40 41 42 43 44 45 46 47 48 49 50

000
ASUS43 KMKX 261921
RWRWI

WISCONSIN REGIONAL WEATHER ROUNDUP
NATIONAL WEATHER SERVICE MILWAUKEE/SULLIVAN WI
200 PM CDT THU MAY 26 2016

NOTE: "FAIR" INDICATES FEW OR NO CLOUDS BELOW 12,000 FEET WITH NO
SIGNIFICANT WEATHER AND/OR OBSTRUCTIONS TO VISIBILITY.

WIZ001-002-006>008-014>016-023>028-262000-
NORTHWEST WISCONSIN

CITY           SKY/WX    TMP DP  RH WIND       PRES   REMARKS
SUPERIOR ARPT  CLOUDY    55  51  83 N7        29.82S
ASHLAND        CLOUDY    61  58  90 N6        29.81S
HAYWARD        MOSUNNY   74  57  55 VRB7      29.79S
SIREN          MOSUNNY   77  57  50 SW8       29.79S
CUMBERLAND     SUNNY     73  54  49 SW13G18   29.81S
RICE LAKE      SUNNY     76  56  48 SW8       29.82S
CHETEK         MOSUNNY   76  58  52 SW12      29.80S
LADYSMITH      MOSUNNY   74  61  61 SW8       29.83R
EAU CLAIRE     MOSUNNY   77  60  55 SW13      29.81S
MENOMONIE      MOSUNNY   79  62  55 SW15      29.82R HX  80
NEW RICHMOND   SUNNY     78  55  45 SW9G17    29.82R
OSCEOLA        SUNNY     79  57  46 W13G18    29.83R
$$

WIZ003>005-009-010-017-018-262000-
NORTH CENTRAL WISCONSIN

CITY           SKY/WX    TMP DP  RH WIND       PRES   REMARKS
MANITOWISH WTR NOT AVBL
ARBOR VITAE    MOSUNNY   72  62  71 SW5       29.83R
WOODRUFF       MOSUNNY   72  62  71 SW5       29.83R
RHINELANDER    PTSUNNY   69  59  70 VRB5      29.85R
EAGLE RIVER      N/A     66  61  84 N3        29.83R
LAND O LAKES   PTSUNNY   64  60  87 NE5       29.83F
PHILLIPS       PTSUNNY   74  60  62 SW7       29.81R
TOMAHAWK       PTSUNNY   70  60  72 CALM      29.83R
MEDFORD        MOSUNNY   70  62  76 W10       29.83S
MERRILL        MOSUNNY  N/A N/A N/A W12       29.83R
$$

WIZ029-030-035-036-043>047-262000-
CENTRAL WISCONSIN

CITY           SKY/WX    TMP DP  RH WIND       PRES   REMARKS
WAUSAU         MOSUNNY   75  59  57 SW14G20   29.80F
MOSINEE        PTSUNNY   73  63  68 SW12      29.84S
MARSHFIELD     MOSUNNY   75  59  57 W15       29.83S
STEVENS POINT  MOSUNNY   73  58  57 W13G24    29.83S
WAUPACA        MOSUNNY   79  59  50 SW17G23   29.82F HX  80
WAUTOMA        PTSUNNY   80  61  52 SW12G17   29.83F HX  81
WISC RAPIDS    MOSUNNY   79  56  45 W14G21    29.84S HX  80
CAMP DOUGLAS   MOSUNNY   77  68  73 W13G20    29.85R
$$

WIZ011>013-019>022-031-037>040-048>050-262000-
NORTHEAST WISCONSIN

CITY           SKY/WX    TMP DP  RH WIND       PRES   REMARKS
ANTIGO         MOSUNNY   69  62  80 N3        29.84R
SHAWANO        PTSUNNY   77  61  56 W14       29.82S
OCONTO         CLOUDY    74  68  79 SW15G21   29.80R
STURGEON BAY   NOT AVBL
GREEN BAY      MOSUNNY   78  63  59 W16G26    29.80S HX  80
MANITOWOC      PTSUNNY   82  58  43 W16G29    29.81F HX  82
APPLETON       PTSUNNY   75  59  57 W23       29.81F
CLINTONVILLE   MOSUNNY   75  59  57 SW16      29.82S
OSHKOSH        SUNNY     79  62  56 W13G20    29.81F HX  80
$$

WIZ032>034-041-042-053>061-262000-
SOUTHWEST WISCONSIN

CITY           SKY/WX    TMP DP  RH WIND       PRES   REMARKS
LA CROSSE      SUNNY     80  59  48 SW10      29.83S HX  81
SPARTA         MOSUNNY   78  61  57 W14       29.86R
VIROQUA        PTSUNNY   77  60  56 SW16      29.88R
BOSCOBEL       SUNNY     82  57  42 W10G20    29.86S HX  82
PRAIRIE DU CHI SUNNY     81  53  37 SW9G16    29.86S HX  80
PLATTEVILLE    SUNNY     82  53  36 W14G23    29.88R HX  81
$$

WIZ056-057-062-063-064-067-068-262000-
SOUTH CENTRAL WISCONSIN

CITY           SKY/WX    TMP DP  RH WIND       PRES   REMARKS
REEDSBURG      SUNNY     79  60  52 W15       29.85R HX  80
BARABOO/DELLS  SUNNY     79  56  46 W13G18    29.85R
LONE ROCK      SUNNY     83  56  39 W15G21    29.86R HX  82
MINERAL POINT  SUNNY     82  52  34 SW12      29.88R HX  81
MADISON        PTSUNNY   80  59  48 W9        29.85R HX  81
MIDDLETON      SUNNY     82  56  41 W14       29.86R HX  81
WATERTOWN      SUNNY     81  62  52 SW14      29.84S HX  82
MONROE         MOSUNNY   81  54  39 W21       29.87S HX  80
JANESVILLE     MOSUNNY   82  59  44 SW14G20   29.86F HX  82
$$

WIZ051-052-058>065-066-070>072-262000-
SOUTHEAST WISCONSIN

CITY           SKY/WX    TMP DP  RH WIND       PRES   REMARKS
MILWAUKEE      PTSUNNY   80  62  54 SW17      29.86S HX  81
WAUKESHA       SUNNY     79  57  47 SW16G24   29.87F HX  80
MILWAUKEE/TIMM SUNNY     81  59  47 S14       29.85F HX  81
RACINE         MOSUNNY   78  64  61 S7        29.88F HX  80
BURLINGTON     PTSUNNY   80  59  49 S14       29.87S HX  81
KENOSHA        MOSUNNY   79  64  60 SW14      29.87F HX  81
FOND DU LAC    SUNNY     80  61  52 SW14G22   29.83S HX  81
SHEBOYGAN      SUNNY     81  59  47 SW20G30   29.82F HX  81
WEST BEND      SUNNY     79  59  50 SW15G22   29.84S HX  80
JUNEAU         SUNNY     78  61  56 SW16G22   29.86S
$$

LSZ147-162-262000-
LAKE SUPERIOR

STATION/POSITION TIME  TEMP    WIND        PRES    WAVE
                       AIR SEA DIR/SP/G            HT/PER
                 (UTC) (F)     (DEG/KT/KT) (MB)    (FT/S)
W MID LAKE BUOY  1850   41 38   50/  8/ 10 1009.5F   1/ 4
DEVILS ISLAND    1900   46      40/  6/  7 1010.5R
PORT WING        1740   42     330/  4/  4 1010.2
SAXON HARBOR     1800   54     200/  5/  7 1009.1F
$$

LMZ867-665-643>646-262000-
LAKE MICHIGAN

STATION/POSITION TIME  TEMP    WIND        PRES    WAVE
                       AIR SEA DIR/SP/G            HT/PER
                 (UTC) (F)     (DEG/KT/KT) (MB)    (FT/S)
CHAMBERS ISLAND  1800   64      60/  6/  8 1008.8F
N MID LAKE BUOY  1850   49 45  200/ 12/ 16 1009.8S   1/ 3
NORTHPORT PIER   1800   52     140/  9/ 10 1009.1F
SISTER BAY       1819   70     150/ 13/ 16   N/A
ALGOMA LAKESHORE 1817          200/  8/ 10   N/A
KEWAUNEE LAKESHO 1800   52     130/  3/  5 1009.1F
SHEBOYGAN LAKESH 1900   57     170/ 21/ 23 1010.1F
PORT WASHINGTON  1800   62     180/ 10/ 13 1011.2F
S MID LAKE BUOY  1850   55 49  170/  8/ 10 1011.3F   1/ 3
KENOSHA   LAKESH 1900   64     170/ 11/ 14 1011.2S
$$

TC  - TEMPERATURE IN CELSIUS
VSB - VISIBILITY IN STATUTE MILES
WCI - WIND CHILL INDEX
HX  - HEAT INDEX




USA.gov is the U.S. government's official web portal to all federal, state and local government web resources and services.